Dauntless Aviation
Airports Europe United Kingdom
EGPY

Dounreay Thurso

UNITED KINGDOM

Airport Info
Suggest Updated Information for this Airport

Location

Latitude / Longitude: 58°35'3"N / 3°43'31"W
  58°35.052'N / 3°43.518'W
  58.5842 / -3.7253

Runway Information

Runway 04 /22

Dimensions: 3300 x 100 ft.
Surface: U
 
Runway 04
Runway 22
Latitude: 58.579444 58.586944
Longitude: -3.731389 -3.721667
Elevation: 130 ft. 130 ft.
Runway true heading: 33.4 213.4
 
Satellite photo at:
Airport distance calculator
From:
Weather Reports

METAR

EGPC
22.2nm E
EGPC 191820Z AUTO 23018KT 9999 BKN027/// 11/09 Q1006
EGPA
34.2nm NE
EGPA 191820Z 23015KT 9999 -RA FEW006 SCT010 BKN020 10/10 Q1004

TAF

EGPC
22.2nm E
TAF EGPC 191655Z 1918/2003 23009KT 9999 BKN020 TEMPO 1918/2003 27015G25KT 4000 -RADZ BKN012
EGPA
34.2nm NE
TAF AMD EGPA 191824Z 1918/2003 23015G25KT 9999 BKN015 TEMPO 1918/2003 4000 -RADZ BKN008 PROB40 TEMPO 1918/1921 24025G35KT 2000 DZ BR BKN004 PROB30 TEMPO 2000/2003 0500 FG VV///
Safelog

 

Dauntless Aviation

© 2007-2017 Dauntless Aviation, all rights reserved
Information provided via PilotNav comes from a variety of official and unofficial data sources. As errors are possible, do not use PilotNav for primary flight planning purposes. Verify any information that you receive via PilotNav with current and canonical charts and other official documents. The material in this database is subject to database copyrights held by Dauntless Aviation and may not be copied without the express permission of Dauntless Aviation - licenses for use of part of all of this data are available for purchase; enquire via the Dauntless Aviation helpdesk. A number of mechanisms and markers exist in the database to protect against and identify infringement / copyright. Automated queries against this website are stictly prohibited, and all activity is logged and analyzed.